Year,Month,Day,Hour,Minute,Value (Times are PST for temperature in C)
2021,06,27,00,00,25.50
2021,06,27,00,01,25.50
2021,06,27,00,02,25.50
2021,06,27,00,03,25.50
2021,06,27,00,04,25.50
2021,06,27,00,05,25.50
2021,06,27,00,06,25.40
2021,06,27,00,07,25.40
2021,06,27,00,08,25.40
2021,06,27,00,09,25.30
2021,06,27,00,10,25.30
2021,06,27,00,11,25.20
2021,06,27,00,12,25.20
2021,06,27,00,13,25.20
2021,06,27,00,14,25.20
2021,06,27,00,15,25.20
2021,06,27,00,16,25.20
2021,06,27,00,17,25.20
2021,06,27,00,18,25.20
2021,06,27,00,19,25.20
2021,06,27,00,20,25.20
2021,06,27,00,21,25.10
2021,06,27,00,22,25.10
2021,06,27,00,23,25.10
2021,06,27,00,24,25.10
2021,06,27,00,25,25.10
2021,06,27,00,26,25.10
2021,06,27,00,27,25.10
2021,06,27,00,28,25.00
2021,06,27,00,29,25.00
2021,06,27,00,30,25.00
2021,06,27,00,31,25.00
2021,06,27,00,32,25.00
2021,06,27,00,33,24.90
2021,06,27,00,34,24.90
2021,06,27,00,35,24.80
2021,06,27,00,36,24.80
2021,06,27,00,37,24.70
2021,06,27,00,38,24.70
2021,06,27,00,39,24.70
2021,06,27,00,40,24.70
2021,06,27,00,41,24.60
2021,06,27,00,42,24.60
2021,06,27,00,43,24.60
2021,06,27,00,44,24.70
2021,06,27,00,45,24.70
2021,06,27,00,46,24.70
2021,06,27,00,47,24.70
2021,06,27,00,48,24.70
2021,06,27,00,49,24.70
2021,06,27,00,50,24.70
2021,06,27,00,51,24.60
2021,06,27,00,52,24.60
2021,06,27,00,53,24.60
2021,06,27,00,54,24.60
2021,06,27,00,55,24.60
2021,06,27,00,56,24.60
2021,06,27,00,57,24.60
2021,06,27,00,58,24.60
2021,06,27,00,59,24.50
2021,06,27,01,00,24.50
2021,06,27,01,01,24.50
2021,06,27,01,02,24.40
2021,06,27,01,03,24.40
2021,06,27,01,04,24.30
2021,06,27,01,05,24.40
2021,06,27,01,06,24.40
2021,06,27,01,07,24.40
2021,06,27,01,08,24.40
2021,06,27,01,09,24.40
2021,06,27,01,10,24.40
2021,06,27,01,11,24.30
2021,06,27,01,12,24.30
2021,06,27,01,13,24.30
2021,06,27,01,14,24.30
2021,06,27,01,15,24.30
2021,06,27,01,16,24.30
2021,06,27,01,17,24.30
2021,06,27,01,18,24.30
2021,06,27,01,19,24.30
2021,06,27,01,20,24.30
2021,06,27,01,21,24.30
2021,06,27,01,22,24.30
2021,06,27,01,23,24.30
2021,06,27,01,24,24.20
2021,06,27,01,25,24.20
2021,06,27,01,26,24.20
2021,06,27,01,27,24.20
2021,06,27,01,28,24.20
2021,06,27,01,29,24.20
2021,06,27,01,30,24.10
2021,06,27,01,31,24.10
2021,06,27,01,32,24.10
2021,06,27,01,33,24.10
2021,06,27,01,34,24.10
2021,06,27,01,35,24.10
2021,06,27,01,36,24.10
2021,06,27,01,37,24.10
2021,06,27,01,38,24.00
2021,06,27,01,39,23.90
2021,06,27,01,40,23.90
2021,06,27,01,41,23.90
2021,06,27,01,42,23.90
2021,06,27,01,43,23.90
2021,06,27,01,44,23.90
2021,06,27,01,45,23.80
2021,06,27,01,46,23.80
2021,06,27,01,47,23.80
2021,06,27,01,48,23.80
2021,06,27,01,49,23.80
2021,06,27,01,50,23.80
2021,06,27,01,51,23.80
2021,06,27,01,52,23.70
2021,06,27,01,53,23.70
2021,06,27,01,54,23.70
2021,06,27,01,55,23.70
2021,06,27,01,56,23.70
2021,06,27,01,57,23.70
2021,06,27,01,58,23.70
2021,06,27,01,59,23.70
2021,06,27,02,00,23.70
2021,06,27,02,01,23.70
2021,06,27,02,02,23.70
2021,06,27,02,03,23.60
2021,06,27,02,04,23.60
2021,06,27,02,05,23.60
2021,06,27,02,06,23.60
2021,06,27,02,07,23.60
2021,06,27,02,08,23.60
2021,06,27,02,09,23.40
2021,06,27,02,10,23.40
2021,06,27,02,11,23.40
2021,06,27,02,12,23.40
2021,06,27,02,13,23.30
2021,06,27,02,14,23.30
2021,06,27,02,15,23.30
2021,06,27,02,16,23.30
2021,06,27,02,17,23.30
2021,06,27,02,18,23.30
2021,06,27,02,19,23.20
2021,06,27,02,20,23.20
2021,06,27,02,21,23.20
2021,06,27,02,22,23.20
2021,06,27,02,23,23.20
2021,06,27,02,24,23.20
2021,06,27,02,25,23.10
2021,06,27,02,26,23.10
2021,06,27,02,27,23.10
2021,06,27,02,28,23.10
2021,06,27,02,29,23.10
2021,06,27,02,30,23.10
2021,06,27,02,31,23.10
2021,06,27,02,32,23.10
2021,06,27,02,33,23.10
2021,06,27,02,34,23.10
2021,06,27,02,35,23.10
2021,06,27,02,36,23.10
2021,06,27,02,37,23.10
2021,06,27,02,38,23.10
2021,06,27,02,39,23.10
2021,06,27,02,40,23.10
2021,06,27,02,41,23.10
2021,06,27,02,42,23.10
2021,06,27,02,43,23.00
2021,06,27,02,44,22.90
2021,06,27,02,45,22.90
2021,06,27,02,46,22.90
2021,06,27,02,47,22.90
2021,06,27,02,48,22.90
2021,06,27,02,49,22.90
2021,06,27,02,50,22.90
2021,06,27,02,51,22.90
2021,06,27,02,52,22.90
2021,06,27,02,53,22.90
2021,06,27,02,54,22.90
2021,06,27,02,55,22.90
2021,06,27,02,56,22.90
2021,06,27,02,57,22.90
2021,06,27,02,58,22.90
2021,06,27,02,59,22.90
2021,06,27,03,00,22.90
2021,06,27,03,01,22.80
2021,06,27,03,02,22.80
2021,06,27,03,03,22.80
2021,06,27,03,04,22.80
2021,06,27,03,05,22.80
2021,06,27,03,06,22.80
2021,06,27,03,07,22.80
2021,06,27,03,08,22.80
2021,06,27,03,09,22.80
2021,06,27,03,10,22.80
2021,06,27,03,11,22.70
2021,06,27,03,12,22.70
2021,06,27,03,13,22.70
2021,06,27,03,14,22.70
2021,06,27,03,15,22.70
2021,06,27,03,16,22.70
2021,06,27,03,17,22.70
2021,06,27,03,18,22.60
2021,06,27,03,19,22.60
2021,06,27,03,20,22.60
2021,06,27,03,21,22.60
2021,06,27,03,22,22.60
2021,06,27,03,23,22.60
2021,06,27,03,24,22.50
2021,06,27,03,25,22.50
2021,06,27,03,26,22.50
2021,06,27,03,27,22.50
2021,06,27,03,28,22.50
2021,06,27,03,29,22.50
2021,06,27,03,30,22.50
2021,06,27,03,31,22.50
2021,06,27,03,32,22.40
2021,06,27,03,33,22.40
2021,06,27,03,34,22.40
2021,06,27,03,35,22.40
2021,06,27,03,36,22.40
2021,06,27,03,37,22.40
2021,06,27,03,38,22.40
2021,06,27,03,39,22.40
2021,06,27,03,40,22.30
2021,06,27,03,41,22.30
2021,06,27,03,42,22.30
2021,06,27,03,43,22.30
2021,06,27,03,44,22.20
2021,06,27,03,45,22.20
2021,06,27,03,46,22.20
2021,06,27,03,47,22.20
2021,06,27,03,48,22.20
2021,06,27,03,49,22.20
2021,06,27,03,50,22.20
2021,06,27,03,51,22.20
2021,06,27,03,52,22.20
2021,06,27,03,53,22.10
2021,06,27,03,54,22.10
2021,06,27,03,55,22.10
2021,06,27,03,56,22.10
2021,06,27,03,57,22.10
2021,06,27,03,58,22.10
2021,06,27,03,59,22.10
2021,06,27,04,00,22.10
2021,06,27,04,01,22.10
2021,06,27,04,02,22.10
2021,06,27,04,03,22.10
2021,06,27,04,04,22.10
2021,06,27,04,05,22.00
2021,06,27,04,06,22.00
2021,06,27,04,07,22.00
2021,06,27,04,08,22.00
2021,06,27,04,09,22.00
2021,06,27,04,10,22.00
2021,06,27,04,11,22.00
2021,06,27,04,12,22.00
2021,06,27,04,13,22.00
2021,06,27,04,14,22.00
2021,06,27,04,15,21.90
2021,06,27,04,16,21.90
2021,06,27,04,17,21.90
2021,06,27,04,18,21.90
2021,06,27,04,19,21.90
2021,06,27,04,20,21.90
2021,06,27,04,21,21.90
2021,06,27,04,22,21.80
2021,06,27,04,23,21.80
2021,06,27,04,24,21.80
2021,06,27,04,25,21.80
2021,06,27,04,26,21.80
2021,06,27,04,27,21.80
2021,06,27,04,28,21.80
2021,06,27,04,29,21.80
2021,06,27,04,30,21.80
2021,06,27,04,31,21.80
2021,06,27,04,32,21.80
2021,06,27,04,33,21.70
2021,06,27,04,34,21.70
2021,06,27,04,35,21.70
2021,06,27,04,36,21.70
2021,06,27,04,37,21.70
2021,06,27,04,38,21.70
2021,06,27,04,39,21.70
2021,06,27,04,40,21.70
2021,06,27,04,41,21.70
2021,06,27,04,42,21.70
2021,06,27,04,43,21.70
2021,06,27,04,44,21.70
2021,06,27,04,45,21.70
2021,06,27,04,46,21.70
2021,06,27,04,47,21.70
2021,06,27,04,48,21.70
2021,06,27,04,49,21.60
2021,06,27,04,50,21.60
2021,06,27,04,51,21.60
2021,06,27,04,52,21.60
2021,06,27,04,53,21.60
2021,06,27,04,54,21.60
2021,06,27,04,55,21.60
2021,06,27,04,56,21.60
2021,06,27,04,57,21.60
2021,06,27,04,58,21.60
2021,06,27,04,59,21.60
2021,06,27,05,00,21.60
2021,06,27,05,01,21.60
2021,06,27,05,02,21.60
2021,06,27,05,03,21.60
2021,06,27,05,04,21.60
2021,06,27,05,05,21.60
2021,06,27,05,06,21.60
2021,06,27,05,07,21.60
2021,06,27,05,08,21.60
2021,06,27,05,09,21.60
2021,06,27,05,10,21.60
2021,06,27,05,11,21.60
2021,06,27,05,12,21.50
2021,06,27,05,13,21.40
2021,06,27,05,14,21.40
2021,06,27,05,15,21.40
2021,06,27,05,16,21.40
2021,06,27,05,17,21.40
2021,06,27,05,18,21.40
2021,06,27,05,19,21.40
2021,06,27,05,20,21.40
2021,06,27,05,21,21.40
2021,06,27,05,22,21.40
2021,06,27,05,23,21.30
2021,06,27,05,24,21.30
2021,06,27,05,25,21.30
2021,06,27,05,26,21.30
2021,06,27,05,27,21.30
2021,06,27,05,28,21.30
2021,06,27,05,29,21.30
2021,06,27,05,30,21.30
2021,06,27,05,31,21.40
2021,06,27,05,32,21.40
2021,06,27,05,33,21.40
2021,06,27,05,34,21.40
2021,06,27,05,35,21.40
2021,06,27,05,36,21.50
2021,06,27,05,37,21.60
2021,06,27,05,38,21.60
2021,06,27,05,39,21.60
2021,06,27,05,40,21.60
2021,06,27,05,41,21.60
2021,06,27,05,42,21.60
2021,06,27,05,43,21.60
2021,06,27,05,44,21.60
2021,06,27,05,45,21.60
2021,06,27,05,46,21.60
2021,06,27,05,47,21.60
2021,06,27,05,48,21.60
2021,06,27,05,49,21.60
2021,06,27,05,50,21.60
2021,06,27,05,51,21.70
2021,06,27,05,52,21.70
2021,06,27,05,53,21.70
2021,06,27,05,54,21.70
2021,06,27,05,55,21.80
2021,06,27,05,56,21.80
2021,06,27,05,57,21.80
2021,06,27,05,58,21.80
2021,06,27,05,59,21.80
2021,06,27,06,00,21.80
2021,06,27,06,01,21.80
2021,06,27,06,02,21.90
2021,06,27,06,03,21.90
2021,06,27,06,04,21.90
2021,06,27,06,05,21.90
2021,06,27,06,06,22.00
2021,06,27,06,07,22.00
2021,06,27,06,08,22.00
2021,06,27,06,09,22.00
2021,06,27,06,10,22.00
2021,06,27,06,11,22.00
2021,06,27,06,12,22.00
2021,06,27,06,13,22.00
2021,06,27,06,14,22.10
2021,06,27,06,15,22.10
2021,06,27,06,16,22.10
2021,06,27,06,17,22.10
2021,06,27,06,18,22.10
2021,06,27,06,19,22.20
2021,06,27,06,20,22.20
2021,06,27,06,21,22.20
2021,06,27,06,22,22.30
2021,06,27,06,23,22.30
2021,06,27,06,24,22.30
2021,06,27,06,25,22.40
2021,06,27,06,26,22.40
2021,06,27,06,27,22.40
2021,06,27,06,28,22.50
2021,06,27,06,29,22.50
2021,06,27,06,30,22.50
2021,06,27,06,31,22.50
2021,06,27,06,32,22.60
2021,06,27,06,33,22.60
2021,06,27,06,34,22.70
2021,06,27,06,35,22.70
2021,06,27,06,36,22.70
2021,06,27,06,37,22.80
2021,06,27,06,38,22.80
2021,06,27,06,39,22.90
2021,06,27,06,40,22.90
2021,06,27,06,41,22.90
2021,06,27,06,42,22.90
2021,06,27,06,43,23.00
2021,06,27,06,44,23.10
2021,06,27,06,45,23.10
2021,06,27,06,46,23.20
2021,06,27,06,47,23.20
2021,06,27,06,48,23.30
2021,06,27,06,49,23.30
2021,06,27,06,50,23.30
2021,06,27,06,51,23.40
2021,06,27,06,52,23.50
2021,06,27,06,53,23.60
2021,06,27,06,54,23.70
2021,06,27,06,55,23.70
2021,06,27,06,56,23.70
2021,06,27,06,57,23.80
2021,06,27,06,58,23.80
2021,06,27,06,59,23.90
2021,06,27,07,00,24.00
2021,06,27,07,01,24.10
2021,06,27,07,02,24.10
2021,06,27,07,03,24.10
2021,06,27,07,04,24.20
2021,06,27,07,05,24.30
2021,06,27,07,06,24.40
2021,06,27,07,07,24.50
2021,06,27,07,08,24.60
2021,06,27,07,09,24.70
2021,06,27,07,10,24.80
2021,06,27,07,11,25.00
2021,06,27,07,12,25.10
2021,06,27,07,13,25.20
2021,06,27,07,14,25.30
2021,06,27,07,15,25.40
2021,06,27,07,16,25.40
2021,06,27,07,17,25.50
2021,06,27,07,18,25.60
2021,06,27,07,19,25.70
2021,06,27,07,20,25.80
2021,06,27,07,21,25.80
2021,06,27,07,22,25.90
2021,06,27,07,23,25.90
2021,06,27,07,24,26.00
2021,06,27,07,25,26.00
2021,06,27,07,26,26.00
2021,06,27,07,27,26.10
2021,06,27,07,28,26.10
2021,06,27,07,29,26.20
2021,06,27,07,30,26.20
2021,06,27,07,31,26.30
2021,06,27,07,32,26.30
2021,06,27,07,33,26.40
2021,06,27,07,34,26.40
2021,06,27,07,35,26.50
2021,06,27,07,36,26.60
2021,06,27,07,37,26.60
2021,06,27,07,38,26.60
2021,06,27,07,39,26.70
2021,06,27,07,40,26.70
2021,06,27,07,41,26.80
2021,06,27,07,42,26.80
2021,06,27,07,43,26.80
2021,06,27,07,44,26.80
2021,06,27,07,45,26.80
2021,06,27,07,46,26.90
2021,06,27,07,47,26.90
2021,06,27,07,48,27.10
2021,06,27,07,49,27.10
2021,06,27,07,50,27.10
2021,06,27,07,51,27.10
2021,06,27,07,52,27.00
2021,06,27,07,53,26.90
2021,06,27,07,54,26.90
2021,06,27,07,55,26.90
2021,06,27,07,56,26.90
2021,06,27,07,57,26.90
2021,06,27,07,58,26.90
2021,06,27,07,59,26.90
2021,06,27,08,00,26.80
2021,06,27,08,01,26.80
2021,06,27,08,02,26.80
2021,06,27,08,03,26.80
2021,06,27,08,04,26.80
2021,06,27,08,05,26.80
2021,06,27,08,06,26.90
2021,06,27,08,07,26.90
2021,06,27,08,08,26.90
2021,06,27,08,09,26.90
2021,06,27,08,10,27.00
2021,06,27,08,11,27.10
2021,06,27,08,12,27.10
2021,06,27,08,13,27.10
2021,06,27,08,14,27.20
2021,06,27,08,15,27.20
2021,06,27,08,16,27.30
2021,06,27,08,17,27.30
2021,06,27,08,18,27.30
2021,06,27,08,19,27.40
2021,06,27,08,20,27.40
2021,06,27,08,21,27.50
2021,06,27,08,22,27.60
2021,06,27,08,23,27.60
2021,06,27,08,24,27.60
2021,06,27,08,25,27.60
2021,06,27,08,26,27.50
2021,06,27,08,27,27.50
2021,06,27,08,28,27.60
2021,06,27,08,29,27.60
2021,06,27,08,30,27.50
2021,06,27,08,31,27.40
2021,06,27,08,32,27.40
2021,06,27,08,33,27.30
2021,06,27,08,34,27.30
2021,06,27,08,35,27.30
2021,06,27,08,36,27.30
2021,06,27,08,37,27.30
2021,06,27,08,38,27.30
2021,06,27,08,39,27.30
2021,06,27,08,40,27.30
2021,06,27,08,41,27.30
2021,06,27,08,42,27.30
2021,06,27,08,43,27.30
2021,06,27,08,44,27.30
2021,06,27,08,45,27.40
2021,06,27,08,46,27.40
2021,06,27,08,47,27.50
2021,06,27,08,48,27.60
2021,06,27,08,49,27.60
2021,06,27,08,50,27.70
2021,06,27,08,51,27.70
2021,06,27,08,52,27.70
2021,06,27,08,53,27.70
2021,06,27,08,54,27.70
2021,06,27,08,55,27.60
2021,06,27,08,56,27.60
2021,06,27,08,57,27.60
2021,06,27,08,58,27.60
2021,06,27,08,59,27.60
2021,06,27,09,00,27.60
2021,06,27,09,01,27.60
2021,06,27,09,02,27.70
2021,06,27,09,03,27.70
2021,06,27,09,04,27.80
2021,06,27,09,05,27.80
2021,06,27,09,06,27.80
2021,06,27,09,07,27.80
2021,06,27,09,08,27.80
2021,06,27,09,09,27.80
2021,06,27,09,10,27.80
2021,06,27,09,11,27.90
2021,06,27,09,12,28.00
2021,06,27,09,13,28.00
2021,06,27,09,14,28.00
2021,06,27,09,15,28.00
2021,06,27,09,16,28.10
2021,06,27,09,17,28.10
2021,06,27,09,18,28.20
2021,06,27,09,19,28.20
2021,06,27,09,20,28.20
2021,06,27,09,21,28.20
2021,06,27,09,22,28.10
2021,06,27,09,23,28.10
2021,06,27,09,24,28.10
2021,06,27,09,25,28.10
2021,06,27,09,26,28.10
2021,06,27,09,27,28.20
2021,06,27,09,28,28.30
2021,06,27,09,29,28.40
2021,06,27,09,30,28.50
2021,06,27,09,31,28.60
2021,06,27,09,32,28.60
2021,06,27,09,33,28.50
2021,06,27,09,34,28.40
2021,06,27,09,35,28.40
2021,06,27,09,36,28.30
2021,06,27,09,37,28.30
2021,06,27,09,38,28.40
2021,06,27,09,39,28.40
2021,06,27,09,40,28.60
2021,06,27,09,41,28.60
2021,06,27,09,42,28.70
2021,06,27,09,43,28.70
2021,06,27,09,44,28.70
2021,06,27,09,45,28.60
2021,06,27,09,46,28.40
2021,06,27,09,47,28.30
2021,06,27,09,48,28.30
2021,06,27,09,49,28.30
2021,06,27,09,50,28.40
2021,06,27,09,51,28.40
2021,06,27,09,52,28.40
2021,06,27,09,53,28.50
2021,06,27,09,54,28.60
2021,06,27,09,55,28.60
2021,06,27,09,56,28.80
2021,06,27,09,57,28.90
2021,06,27,09,58,29.00
2021,06,27,09,59,29.20
2021,06,27,10,00,29.30
2021,06,27,10,01,29.30
2021,06,27,10,02,29.50
2021,06,27,10,03,29.50
2021,06,27,10,04,29.60
2021,06,27,10,05,29.60
2021,06,27,10,06,29.70
2021,06,27,10,07,29.70
2021,06,27,10,08,29.70
2021,06,27,10,09,29.70
2021,06,27,10,10,29.70
2021,06,27,10,11,29.70
2021,06,27,10,12,29.80
2021,06,27,10,13,29.90
2021,06,27,10,14,29.90
2021,06,27,10,15,29.80
2021,06,27,10,16,29.70
2021,06,27,10,17,29.70
2021,06,27,10,18,29.60
2021,06,27,10,19,29.60
2021,06,27,10,20,29.50
2021,06,27,10,21,29.40
2021,06,27,10,22,29.40
2021,06,27,10,23,29.30
2021,06,27,10,24,29.30
2021,06,27,10,25,29.40
2021,06,27,10,26,29.50
2021,06,27,10,27,29.50
2021,06,27,10,28,29.60
2021,06,27,10,29,29.60
2021,06,27,10,30,29.60
2021,06,27,10,31,29.60
2021,06,27,10,32,29.60
2021,06,27,10,33,29.60
2021,06,27,10,34,29.60
2021,06,27,10,35,29.70
2021,06,27,10,36,29.80
2021,06,27,10,37,29.80
2021,06,27,10,38,29.90
2021,06,27,10,39,30.10
2021,06,27,10,40,30.20
2021,06,27,10,41,30.30
2021,06,27,10,42,30.40
2021,06,27,10,43,30.60
2021,06,27,10,44,30.60
2021,06,27,10,45,30.50
2021,06,27,10,46,30.40
2021,06,27,10,47,30.40
2021,06,27,10,48,30.40
2021,06,27,10,49,30.60
2021,06,27,10,50,30.60
2021,06,27,10,51,30.70
2021,06,27,10,52,30.70
2021,06,27,10,53,30.80
2021,06,27,10,54,30.80
2021,06,27,10,55,30.70
2021,06,27,10,56,30.70
2021,06,27,10,57,30.80
2021,06,27,10,58,30.90
2021,06,27,10,59,30.90
2021,06,27,11,00,30.90
2021,06,27,11,01,31.00
2021,06,27,11,02,31.10
2021,06,27,11,03,31.10
2021,06,27,11,04,31.10
2021,06,27,11,05,31.20
2021,06,27,11,06,31.20
2021,06,27,11,07,31.20
2021,06,27,11,08,31.30
2021,06,27,11,09,31.30
2021,06,27,11,10,31.40
2021,06,27,11,11,31.40
2021,06,27,11,12,31.50
2021,06,27,11,13,31.60
2021,06,27,11,14,31.60
2021,06,27,11,15,31.40
2021,06,27,11,16,31.40
2021,06,27,11,17,31.40
2021,06,27,11,18,31.30
2021,06,27,11,19,31.20
2021,06,27,11,20,31.10
2021,06,27,11,21,31.10
2021,06,27,11,22,31.00
2021,06,27,11,23,31.10
2021,06,27,11,24,31.10
2021,06,27,11,25,31.10
2021,06,27,11,26,31.20
2021,06,27,11,27,31.30
2021,06,27,11,28,31.30
2021,06,27,11,29,31.30
2021,06,27,11,30,31.30
2021,06,27,11,31,31.30
2021,06,27,11,32,31.40
2021,06,27,11,33,31.40
2021,06,27,11,34,31.60
2021,06,27,11,35,31.70
2021,06,27,11,36,31.80
2021,06,27,11,37,31.90
2021,06,27,11,38,31.90
2021,06,27,11,39,31.90
2021,06,27,11,40,31.90
2021,06,27,11,41,31.80
2021,06,27,11,42,31.80
2021,06,27,11,43,31.80
2021,06,27,11,44,31.80
2021,06,27,11,45,31.80
2021,06,27,11,46,31.80
2021,06,27,11,47,31.80
2021,06,27,11,48,31.80
2021,06,27,11,49,31.80
2021,06,27,11,50,31.90
2021,06,27,11,51,31.80
2021,06,27,11,52,31.80
2021,06,27,11,53,31.80
2021,06,27,11,54,31.70
2021,06,27,11,55,31.70
2021,06,27,11,56,31.60
2021,06,27,11,57,31.60
2021,06,27,11,58,31.60
2021,06,27,11,59,31.70
2021,06,27,12,00,31.70
2021,06,27,12,01,31.80
2021,06,27,12,02,31.90
2021,06,27,12,03,31.90
2021,06,27,12,04,31.90
2021,06,27,12,05,32.00
2021,06,27,12,06,32.00
2021,06,27,12,07,32.00
2021,06,27,12,08,32.00
2021,06,27,12,09,32.00
2021,06,27,12,10,32.10
2021,06,27,12,11,32.10
2021,06,27,12,12,32.10
2021,06,27,12,13,32.20
2021,06,27,12,14,32.20
2021,06,27,12,15,32.10
2021,06,27,12,16,32.10
2021,06,27,12,17,32.10
2021,06,27,12,18,32.10
2021,06,27,12,19,32.20
2021,06,27,12,20,32.30
2021,06,27,12,21,32.30
2021,06,27,12,22,32.40
2021,06,27,12,23,32.40
2021,06,27,12,24,32.30
2021,06,27,12,25,32.40
2021,06,27,12,26,32.40
2021,06,27,12,27,32.50
2021,06,27,12,28,32.50
2021,06,27,12,29,32.50
2021,06,27,12,30,32.50
2021,06,27,12,31,32.40
2021,06,27,12,32,32.40
2021,06,27,12,33,32.40
2021,06,27,12,34,32.40
2021,06,27,12,35,32.40
2021,06,27,12,36,32.50
2021,06,27,12,37,32.50
2021,06,27,12,38,32.60
2021,06,27,12,39,32.60
2021,06,27,12,40,32.70
2021,06,27,12,41,32.80
2021,06,27,12,42,32.90
2021,06,27,12,43,33.00
2021,06,27,12,44,33.00
2021,06,27,12,45,33.00
2021,06,27,12,46,32.80
2021,06,27,12,47,32.70
2021,06,27,12,48,32.60
2021,06,27,12,49,32.50
2021,06,27,12,50,32.50
2021,06,27,12,51,32.50
2021,06,27,12,52,32.40
2021,06,27,12,53,32.30
2021,06,27,12,54,32.30
2021,06,27,12,55,32.20
2021,06,27,12,56,32.20
2021,06,27,12,57,32.20
2021,06,27,12,58,32.10
2021,06,27,12,59,32.10
2021,06,27,13,00,32.10
2021,06,27,13,01,32.20
2021,06,27,13,02,32.30
2021,06,27,13,03,32.40
2021,06,27,13,04,32.40
2021,06,27,13,05,32.50
2021,06,27,13,06,32.60
2021,06,27,13,07,32.60
2021,06,27,13,08,32.80
2021,06,27,13,09,32.90
2021,06,27,13,10,32.90
2021,06,27,13,11,32.90
2021,06,27,13,12,32.90
2021,06,27,13,13,32.90
2021,06,27,13,14,32.90
2021,06,27,13,15,32.90
2021,06,27,13,16,32.90
2021,06,27,13,17,33.00
2021,06,27,13,18,33.00
2021,06,27,13,19,33.10
2021,06,27,13,20,33.20
2021,06,27,13,21,33.40
2021,06,27,13,22,33.50
2021,06,27,13,23,33.60
2021,06,27,13,24,33.60
2021,06,27,13,25,33.70
2021,06,27,13,26,33.70
2021,06,27,13,27,33.70
2021,06,27,13,28,33.60
2021,06,27,13,29,33.60
2021,06,27,13,30,33.60
2021,06,27,13,31,33.60
2021,06,27,13,32,33.60
2021,06,27,13,33,33.60
2021,06,27,13,34,33.70
2021,06,27,13,35,33.70
2021,06,27,13,36,33.70
2021,06,27,13,37,33.70
2021,06,27,13,38,33.60
2021,06,27,13,39,33.50
2021,06,27,13,40,33.40
2021,06,27,13,41,33.40
2021,06,27,13,42,33.40
2021,06,27,13,43,33.40
2021,06,27,13,44,33.40
2021,06,27,13,45,33.40
2021,06,27,13,46,33.50
2021,06,27,13,47,33.60
2021,06,27,13,48,33.70
2021,06,27,13,49,33.70
2021,06,27,13,50,33.70
2021,06,27,13,51,33.70
2021,06,27,13,52,33.60
2021,06,27,13,53,33.60
2021,06,27,13,54,33.60
2021,06,27,13,55,33.60
2021,06,27,13,56,33.80
2021,06,27,13,57,34.00
2021,06,27,13,58,34.00
2021,06,27,13,59,34.00
2021,06,27,14,00,33.80
2021,06,27,14,01,33.70
2021,06,27,14,02,33.70
2021,06,27,14,03,33.70
2021,06,27,14,04,33.70
2021,06,27,14,05,33.70
2021,06,27,14,06,33.80
2021,06,27,14,07,33.80
2021,06,27,14,08,33.90
2021,06,27,14,09,34.00
2021,06,27,14,10,34.00
2021,06,27,14,11,34.00
2021,06,27,14,12,34.00
2021,06,27,14,13,34.00
2021,06,27,14,14,34.00
2021,06,27,14,15,34.00
2021,06,27,14,16,34.00
2021,06,27,14,17,34.00
2021,06,27,14,18,34.00
2021,06,27,14,19,34.10
2021,06,27,14,20,34.10
2021,06,27,14,21,34.30
2021,06,27,14,22,34.30
2021,06,27,14,23,34.30
2021,06,27,14,24,34.40
2021,06,27,14,25,34.40
2021,06,27,14,26,34.40
2021,06,27,14,27,34.40
2021,06,27,14,28,34.40
2021,06,27,14,29,34.40
2021,06,27,14,30,34.40
2021,06,27,14,31,34.30
2021,06,27,14,32,34.30
2021,06,27,14,33,34.30
2021,06,27,14,34,34.30
2021,06,27,14,35,34.30
2021,06,27,14,36,34.40
2021,06,27,14,37,34.60
2021,06,27,14,38,34.70
2021,06,27,14,39,34.70
2021,06,27,14,40,34.70
2021,06,27,14,41,34.70
2021,06,27,14,42,34.70
2021,06,27,14,43,34.60
2021,06,27,14,44,34.40
2021,06,27,14,45,34.40
2021,06,27,14,46,34.40
2021,06,27,14,47,34.40
2021,06,27,14,48,34.30
2021,06,27,14,49,34.30
2021,06,27,14,50,34.30
2021,06,27,14,51,34.40
2021,06,27,14,52,34.40
2021,06,27,14,53,34.40
2021,06,27,14,54,34.30
2021,06,27,14,55,34.30
2021,06,27,14,56,34.30
2021,06,27,14,57,34.30
2021,06,27,14,58,34.40
2021,06,27,14,59,34.40
2021,06,27,15,00,34.60
2021,06,27,15,01,34.70
2021,06,27,15,02,34.70
2021,06,27,15,03,34.70
2021,06,27,15,04,34.70
2021,06,27,15,05,34.80
2021,06,27,15,06,34.80
2021,06,27,15,07,34.80
2021,06,27,15,08,34.90
2021,06,27,15,09,34.80
2021,06,27,15,10,34.70
2021,06,27,15,11,34.70
2021,06,27,15,12,34.60
2021,06,27,15,13,34.60
2021,06,27,15,14,34.70
2021,06,27,15,15,34.70
2021,06,27,15,16,34.70
2021,06,27,15,17,34.80
2021,06,27,15,18,34.90
2021,06,27,15,19,34.90
2021,06,27,15,20,34.80
2021,06,27,15,21,34.80
2021,06,27,15,22,34.70
2021,06,27,15,23,34.70
2021,06,27,15,24,34.70
2021,06,27,15,25,34.80
2021,06,27,15,26,34.80
2021,06,27,15,27,34.80
2021,06,27,15,28,34.90
2021,06,27,15,29,34.90
2021,06,27,15,30,34.90
2021,06,27,15,31,34.80
2021,06,27,15,32,34.80
2021,06,27,15,33,34.80
2021,06,27,15,34,34.70
2021,06,27,15,35,34.80
2021,06,27,15,36,34.80
2021,06,27,15,37,34.80
2021,06,27,15,38,34.90
2021,06,27,15,39,35.00
2021,06,27,15,40,35.10
2021,06,27,15,41,35.10
2021,06,27,15,42,35.10
2021,06,27,15,43,35.10
2021,06,27,15,44,35.10
2021,06,27,15,45,35.20
2021,06,27,15,46,35.20
2021,06,27,15,47,35.20
2021,06,27,15,48,35.20
2021,06,27,15,49,35.20
2021,06,27,15,50,35.30
2021,06,27,15,51,35.30
2021,06,27,15,52,35.30
2021,06,27,15,53,35.30
2021,06,27,15,54,35.30
2021,06,27,15,55,35.30
2021,06,27,15,56,35.30
2021,06,27,15,57,35.30
2021,06,27,15,58,35.30
2021,06,27,15,59,35.30
2021,06,27,16,00,35.30
2021,06,27,16,01,35.30
2021,06,27,16,02,35.30
2021,06,27,16,03,35.30
2021,06,27,16,04,35.30
2021,06,27,16,05,35.20
2021,06,27,16,06,35.30
2021,06,27,16,07,35.30
2021,06,27,16,08,35.40
2021,06,27,16,09,35.50
2021,06,27,16,10,35.30
2021,06,27,16,11,35.30
2021,06,27,16,12,35.30
2021,06,27,16,13,35.50
2021,06,27,16,14,35.50
2021,06,27,16,15,35.50
2021,06,27,16,16,35.50
2021,06,27,16,17,35.60
2021,06,27,16,18,35.60
2021,06,27,16,19,35.50
2021,06,27,16,20,35.50
2021,06,27,16,21,35.40
2021,06,27,16,22,35.30
2021,06,27,16,23,35.30
2021,06,27,16,24,35.30
2021,06,27,16,25,35.20
2021,06,27,16,26,35.30
2021,06,27,16,27,35.20
2021,06,27,16,28,35.20
2021,06,27,16,29,35.30
2021,06,27,16,30,35.30
2021,06,27,16,31,35.20
2021,06,27,16,32,35.20
2021,06,27,16,33,35.20
2021,06,27,16,34,35.10
2021,06,27,16,35,35.10
2021,06,27,16,36,35.20
2021,06,27,16,37,35.10
2021,06,27,16,38,35.10
2021,06,27,16,39,35.10
2021,06,27,16,40,35.10
2021,06,27,16,41,35.10
2021,06,27,16,42,35.10
2021,06,27,16,43,34.90
2021,06,27,16,44,34.90
2021,06,27,16,45,34.90
2021,06,27,16,46,34.90
2021,06,27,16,47,34.90
2021,06,27,16,48,34.80
2021,06,27,16,49,34.90
2021,06,27,16,50,34.90
2021,06,27,16,51,34.90
2021,06,27,16,52,34.90
2021,06,27,16,53,35.00
2021,06,27,16,54,35.10
2021,06,27,16,55,35.10
2021,06,27,16,56,35.00
2021,06,27,16,57,34.90
2021,06,27,16,58,34.90
2021,06,27,16,59,34.80
2021,06,27,17,00,34.80
2021,06,27,17,01,34.80
2021,06,27,17,02,34.80
2021,06,27,17,03,34.90
2021,06,27,17,04,34.90
2021,06,27,17,05,34.90
2021,06,27,17,06,34.90
2021,06,27,17,07,34.90
2021,06,27,17,08,34.90
2021,06,27,17,09,35.10
2021,06,27,17,10,35.10
2021,06,27,17,11,35.10
2021,06,27,17,12,35.10
2021,06,27,17,13,35.30
2021,06,27,17,14,35.30
2021,06,27,17,15,35.30
2021,06,27,17,16,35.30
2021,06,27,17,17,35.40
2021,06,27,17,18,35.50
2021,06,27,17,19,35.50